Regional Weather Roundup
Issued by NWS Albany, NY

Home | Current Version | Previous Version | Text Only | Print | Product List | Glossary On
Versions: 1 2 3 4 5 6 7 8 9 10 11 12 13 14 15 16 17 18 19 20 21 22 23 24 25 26 27
000
ASUS41 KALY 202110
RWRALY

NEW YORK STATE HOURLY WEATHER ROUNDUP
NATIONAL WEATHER SERVICE ALBANY NY
400 PM EST MON FEB 20 2017

NOTE: "FAIR" INDICATES FEW OR NO CLOUDS BELOW 12,000 FEET WITH NO
SIGNIFICANT WEATHER AND/OR NO OBSTRUCTIONS TO VISIBILITY.

NYZ032-033-038>043-046>054-057>066-NYZ062>081-082-084-202200-
EAST


CITY           SKY/WX    TMP DP  RH WIND       PRES   REMARKS
ALBANY         SUNNY     41  18  39 NE12      30.28R
GLENS FALLS    SUNNY     38  16  40 E14       30.28R WCI  30
POUGHKEEPSIE   SUNNY     45  13  27 N12       30.22R
NEWBURGH       SUNNY     48  16  27 NE16      30.21R
MONTGOMERY     SUNNY     47  19  33 NE10      30.20R
WHITE PLAINS   SUNNY     50  14  23 N13       30.18R
ISLIP          MOSUNNY   50  15  24 N16G24    30.18R
NEW YORK CITY  MOSUNNY   54  17  23 NW9       30.18R
CENTRAL PARK   SUNNY     53  10  18 VRB6      30.21R
$$

NYZ005>009-017-018-044>046-055-056-202200-
CENTRAL


CITY           SKY/WX    TMP DP  RH WIND       PRES   REMARKS
FULTON         SUNNY     34  16  47 NW10      30.37R WCI  26
SYRACUSE       MOSUNNY   36  17  46 NW9       30.35R WCI  29
ROME           SUNNY     37  20  50 W8        30.33R WCI  31
ELMIRA         SUNNY     45  22  40 NE12      30.30R
BINGHAMTON     SUNNY     38  15  39 NW9G18    30.25R WCI  31
MONTICELLO     SUNNY     43  10  26 NW12G20   30.22R
$$

NYZ026>034-041>043-087-202200-
NORTH


CITY           SKY/WX    TMP DP  RH WIND       PRES   REMARKS
WATERTOWN      SUNNY     37  13  37 N7        30.36R WCI  32
FORT DRUM      NOT AVBL
OGDENSBURG     FAIR      36  11  36 NE7       30.38R WCI  30
MASSENA        SUNNY     34  11  38 NE6       30.38S WCI  29
SARANAC LAKE   SUNNY     33   6  32 NE12      30.23S WCI  24
PLATTSBURGH    SUNNY     33  14  45 NE13      30.34S WCI  24
$$

NYZ001>004-010>016-019>021-085-202200-
WEST


CITY           SKY/WX    TMP DP  RH WIND       PRES   REMARKS
NIAGARA FALLS  SUNNY     44  25  47 N12       30.32S
BUFFALO        MOSUNNY   44  20  38 NE9       30.31S
DUNKIRK        CLOUDY    43  26  51 NE10      30.30F
JAMESTOWN        N/A     46  25  42 E6        30.26R
WELLSVILLE     SUNNY     47  18  31 NW8       30.27S
ROCHESTER      MOSUNNY   39  22  50 NE7       30.36S WCI  34
PENN YAN       SUNNY     42  20  41 VRB6      30.33R
$$

             KEY
       WCI = WIND CHILL INDEX
       VSB = VISIBILITY
       HX  = HEAT INDEX
$$




USA.gov is the U.S. government's official web portal to all federal, state and local government web resources and services.